Simultaneous Nadir Overpasses (SNOs) Predictions

Prediction of SNOs between METOP-A and NOAA-19 Satellite Orbit:

Table of predicted SNOs for the next 14.0 days since TLE Epoch: 5/25/2012
Index Date (METOP-A) Time (METOP-A) METOP-A Lat,Lon Date (NOAA-19) Time (NOAA-19) NOAA-19 Lat,Lon Distance(km) Time Diff (sec)
1 05/26/2012 15:27:10 -73.18, 121.02 05/26/2012 15:25:55 -73.19, 120.72 9.72 75
2 05/26/2012 16:17:51 73.11, -71.79 05/26/2012 16:16:57 73.08, -71.79 3.45 54
3 05/26/2012 17:08:34 -73.05, 95.42 05/26/2012 17:07:58 -73.08, 95.45 2.99 36
4 05/26/2012 17:59:14 73.04, -97.29 05/26/2012 17:59:02 73.06, -97.28 3.08 12
5 05/26/2012 18:49:56 -73.03, 70.03 05/26/2012 18:50:02 -73.02, 70.07 2.32 6
6 05/26/2012 19:40:36 73.02,-122.67 05/26/2012 19:41:06 73.00,-122.67 1.59 30
7 05/26/2012 20:31:18 -73.01, 44.65 05/26/2012 20:32:07 -73.00, 44.58 2.53 49
8 05/26/2012 21:21:58 72.99,-148.06 05/26/2012 21:23:11 72.99,-148.16 3.37 73
9 05/26/2012 22:12:53 -72.33, 17.91 05/26/2012 22:14:00 -72.39, 20.35 82.21 67
10 06/05/2012 11:57:18 -73.56, 174.32 06/05/2012 11:56:08 -73.55, 172.38 61.29 70
11 06/05/2012 12:48:06 73.13, -19.32 06/05/2012 12:47:01 73.14, -19.42 3.55 65
12 06/05/2012 13:38:49 -73.09, 147.93 06/05/2012 13:38:04 -73.10, 147.89 1.52 45
13 06/05/2012 14:29:29 73.05, -44.82 06/05/2012 14:29:05 73.08, -44.81 2.80 24
14 06/05/2012 15:20:12 -73.02, 122.44 06/05/2012 15:20:08 -73.04, 122.51 3.16 4
15 06/05/2012 16:10:51 73.03, -70.21 06/05/2012 16:11:09 73.02, -70.20 1.52
